SCOUT G-1 DEB, 18426

Orbit data source: Space-Track

SCOUT G-1 DEB, 18426 is space debris in LEO originally from a launch on Fri, 14 Nov 1986 UTC launched from the Air Force Western Test Range (AFWTR). Debris objects in space refer to the collection of defunct objects orbiting the Earth. Examples of debris include non-operational satellites, rocket bodies, and fragments generated from explosions, collisions, or faulty payload assembly.

Loading next visibility...
SCOUT G-1 DEB details
Identifier
18426, 1986-088C
Orbit
LEO
Last TLE update7 hours ago
Origin
Flag of USUSAF SD (US)
ManufacturerUnknown
MissionSpacecraft
Bus & MotorUnknown
Mass2 kg wet, 2 kg dry
Launch date (UTC)
1986-11-14 (38 years ago)
Launch vehicleUnknown
Launch site
Air Force Western Test Range (AFWTR)
Object type
Payload
Rocket body
Debris
Shape & HBRUnknown
Radar Cross SectionSmall (<0.1 m²)

Expand to show TLE details & history

TLE from 7 hours ago
0 SCOUT G-1 DEB
1 18426U 86088C   24361.58744061  .00000574  00000-0  59315-3 0  9994
2 18426  89.1228 302.6105 0068444 332.5090 204.6987 13.73626714907134
Epoch: 2024-12-26T14:05Z
Definitive object data (Epoch: 2024-12-26T14:05:54.868Z)
Latitude3.01926°
Longitude175.52116°
Altitude1,035.09 km
Speed7.312 km/s
True Right ascension08h 10m 15s
True Declination3° 00' 07"
Sunlit
Object was in full shadow at TLE epoch
Visualization TLE readout
Latitude-36.9454°
Longitude176.19598°
Altitude1,021.62 km
Speed7.329 km/s
Apparent Right ascension08h 25m 16s
Apparent Declination-38° 11' 45"
Sunlit
Object is in daylight
Visualization observer readout
Local Sidereal Time20:40:10
Azimuth60.438° ENE
Elevation-86.636°
Doppler factor1
Orbital elements
Apogee altitude1,033.983 km
Perigee altitude933.21 km
Semi-major axis7,361.734 km
Eccentricity0.0068444
Inclination89.1228°
RAAN302.6105°
Arg. of periapsis332.509°
True anomaly204.37351°
Mean anomaly204.6987°
Eccentric anomaly204.53585°
Mean motion3.43616 °/min
BSTAR0.00059315
Orbital period104.77 mins
Loading maneuver chart data...
Loading historical data...
Loading historical data...
Loading historical data...
Loading historical data...
Loading historical data...
Loading historical data...
Loading historical data...

SCOUT G-1 DEB Visibility forecast

Observer location: undefined°, undefined

Span
Click to sort rows by Start time (UTC) header in descending order
Start Az.
Max El. time (UTC)
Max El. Az.
Max El.
End time (UTC)
End Az.
7 mins2024-12-26 22:07:12.607Z243.278° WSW2024-12-26 22:10:12.607Z276.858° WNW18.924°2024-12-26 22:14:12.607Z321.847° NNW
8 mins2024-12-27 07:20:12.607Z40.228° NE2024-12-27 07:23:12.607Z73.194° E20.581°2024-12-27 07:28:12.607Z126.278° SE
10 mins2024-12-27 09:04:12.607Z347.939° N2024-12-27 09:09:12.607Z260.967° W39.614°2024-12-27 09:14:12.607Z202.041° SSW
4 mins2024-12-27 19:08:12.607Z89.508° E2024-12-27 19:10:12.607Z68.135° E14.045°2024-12-27 19:12:12.607Z47.726° ENE
10 mins2024-12-27 20:49:12.607Z183.757° SSW2024-12-27 20:54:12.607Z312.153° NW43.997°2024-12-27 20:59:12.607Z355.738° N
|